MapTableWeb Map

Choose a state:
Most recent flow and stage for Wyoming
(Stations highlighted in red are currently above flood stage)
USGS
station
ID
USGS station name NWS
flood
stage
(ft)
Most recent
stage
(ft)
Most recent
flow
(cfs)
Historical
peaks
(cfs)
Most recent
local
date/time
NWS
station
ID
06036805 Firehole River at Old Faithful, YNP   2.43 45 477 2017-02-21 16:00:00 FOFW4
06036905 Firehole River near West Yellowstone MT   3.10 256 2,050 2017-02-21 15:00:00 FRYW4
06036940 Tantalus Creek at Norris Junction, YNP   1.65 6.0 25 2017-02-21 15:30:00 TCKW4
06037100 Gibbon River at Madison Jct, YNP   4.44 98 1,010 2017-02-21 15:00:00 GMJW4
06186500 Yellowstone River at Yellowstone Lk Outlet YNP 9 3.31 Ice 9,950 2017-02-21 15:30:00 YLOW4
06188000 Lamar River nr Tower Ranger Station YNP 15 2.94 Ice 19,500 2017-02-21 15:15:00 TFLW4
06190540 Boiling River at Mammoth,YNP   1.00 19 36 2017-02-21 15:15:00 BRMW4
06218500 WIND RIVER NEAR DUBOIS, WY 5 2.41 72 2,040 2017-02-21 15:15:00 DUBW4
06220800 WIND RIVER ABOVE RED CREEK, NEAR DUBOIS, WY 9.5 2.83 280 11,300 2017-02-21 15:45:00 WRCW4
06221400 DINWOODY CREEK ABOVE LAKES, NEAR BURRIS, WY   1.83 Ice 1,530 2017-02-21 15:45:00 DINW4
06224000 BULL LAKE CREEK ABOVE BULL LAKE, WY   2.54 89 4,470 2017-02-21 15:15:00 BLCW4
06225000 BULL LAKE CREEK NEAR LENORE, WY 8.0 0.93 Ice 6,200 2017-02-21 15:15:00 BULW4
06225500 WIND RIVER NEAR CROWHEART, WY 10 5.73 Ice 14,700 2017-02-21 15:15:00 CROW4
06227600 WIND RIVER NEAR KINNEAR, WY 9 6.47 Ice 16,600 2017-02-21 16:00:00 KINW4
06228000 WIND RIVER AT RIVERTON, WY 9 6.52 Ice 13,300 2017-02-21 15:15:00 WDRW4
06228350 SF L WIND RIV AB WASHAKIE RES, NR FT WASHAKIE, WY   2.36 Ice 2,230 2017-02-18 11:30:00  
06233000 LITTLE POPO AGIE RIVER NEAR LANDER, WY 5.5 2.64 Ssn 2,010 2017-02-21 15:30:00 LPLW4
06235500 LITTLE WIND RIVER NEAR RIVERTON, WY 8 4.18 1,010 14,700 2017-02-21 15:15:00 RVTW4
06253000 FIVEMILE CREEK NEAR SHOSHONI, WY   5.00 Ice 3,500 2017-02-21 15:00:00 FMIW4
06259000 WIND RIVER BELOW BOYSEN RESERVOIR, WY   4.23 *** 28,700 2017-02-21 15:00:00 WWBW4
06268600 BIGHORN RIVER AT WORLAND, WY   6.45 2,530 15,900 2017-02-21 15:00:00  
06274300 BIGHORN RIVER AT BASIN, WY 10.5 9.58 Ice 19,500 2017-02-21 15:15:00 BHBW4
06276500 GREYBULL RIVER AT MEETEETSE, WY 7.5

 

Ssn 13,600 2016-10-13 08:45:00 MEEW4
06278300 SHELL CREEK ABOVE SHELL CREEK RESERVOIR, WY   0.95 4.7 1,870 2017-02-21 15:45:00 ASRW4
06278500 SHELL CREEK NEAR SHELL, WY 6.5 1.88 Ssn 4,850 2016-10-31 09:45:00 SHEW4
06279500 BIGHORN RIVER AT KANE, WY   5.42 7,200 25,200 2017-02-21 15:00:00 LVEW4
06279940 NORTH FORK SHOSHONE RIVER AT WAPITI, WY 8 2.24 Ice 11,200 2017-02-21 15:15:00 NFSW4
06280300 SOUTH FORK SHOSHONE RIVER NEAR VALLEY, WY 9 4.61 167 10,000 2017-02-21 15:00:00 VLYW4
06281000 SOUTH FORK SHOSHONE RIVER AB BUFFALO BILL RES, WY 9.5 5.48 Ice 9,960 2017-02-21 16:00:00 BBRW4
06282000 SHOSHONE RIVER BELOW BUFFALO BILL RESERVOIR, WY   3.47 *** 17,300 2017-02-21 15:00:00 SHOW4
06285100 SHOSHONE RIVER NEAR LOVELL, WY 11 7.07 Ice 16,400 2017-02-21 15:45:00 SLOW4
06289600 WEST PASS CREEK NEAR PARKMAN, WY   1.48 7.9 534 2017-02-21 16:00:00 WPPW4
06289820 EAST PASS CREEK NEAR DAYTON, WY   9.40 12 755 2017-02-21 16:00:00 EPCW4
06297500 HIGHLINE DITCH NEAR DAYTON, WY   0.61 Ssn   2016-11-30 15:00:00  
06298000 TONGUE RIVER NEAR DAYTON, WY   1.79 57 3,400 2017-02-21 16:00:00 DAYW4
06299980 TONGUE RIVER AT MONARCH, WY   3.11 Ice 3,910 2017-02-21 16:00:00 TRMW4
06305700 GOOSE CREEK NEAR ACME, WY   3.51 Ice 3,430 2017-02-21 15:45:00  
06309200 MIDDLE FORK POWDER RIVER NEAR BARNUM, WY 10.5 5.25 Ice 7,110 2017-02-21 16:00:00 MFBW4
06311000 NORTH FORK POWDER RIVER NEAR HAZELTON, WY   2.04 2.4 886 2017-02-21 16:00:00 HAZW4
06311400 NF POWDER RIVER BELOW PASS CREEK, NR MAYOWORTH, WY   3.97 18 1,590 2017-02-21 16:00:00 PCMW4
06313500 POWDER RIVER AT SUSSEX, WY 11 2.77 Ice 32,500 2017-02-21 15:15:00 SXXW4
06317000 POWDER RIVER AT ARVADA, WY 8.5 2.55 Ice 100,000 2017-02-21 15:30:00 ARVW4
06317020 WILD HORSE CREEK NEAR ARVADA, WY   1.76 Ice 737 2017-02-21 16:00:00 WHCW4
06318500 CLEAR CREEK NEAR BUFFALO, WY 6.5 1.24 Ice 3,420 2017-02-21 15:00:00  
06324970 LITTLE POWDER RIVER AB DRY CREEK, NEAR WESTON, WY 13 3.49 56 5,300 2017-02-21 15:00:00 LPTW4
06386500 CHEYENNE RIVER NEAR SPENCER, WY   4.68 Ice 16,000 2017-02-21 15:45:00 CRSW4
06392900 BEAVER CREEK AT MALLO CAMP, NEAR FOUR CORNERS, WY 6 1.08 3.3 154 2017-02-21 15:00:00 CMPW4
06392950 STOCKADE BEAVER CREEK NEAR NEWCASTLE, WY 12.5 6.81 19 776 2017-02-21 15:15:00 BCNW4
06425720 BELLE FOURCHE R BL RATTLESNAKE C, NR PINEY, WY   1.84 Ice 4,100 2017-02-21 16:00:00 BFWW4
06426500 BELLE FOURCHE RIVER BELOW MOORCROFT, WY 13 4.46 Ice 15,300 2017-02-21 15:15:00 BFRW4
06429500 COLD SPRINGS CREEK AT BUCKHORN, WY 8 2.29 Ice 42 2017-02-21 15:00:00 HRNW4
06429905 SAND CREEK NEAR RANCH A, NEAR BEULAH, WY   1.92 25 1,230 2017-02-21 15:45:00 SNDW4
06620000 NORTH PLATTE RIVER NEAR NORTHGATE, CO 8 3.77 Ice 6,720 2017-02-21 15:45:00 NGTC2
06622700 NORTH BRUSH CREEK NEAR SARATOGA, WY   2.19 Ice 1,550 2017-02-21 15:30:00 NBCW4
06622900 SOUTH BRUSH CREEK NEAR SARATOGA, WY  

 

Ssn 1,230 2016-10-04 10:30:00  
06623800 ENCAMPMENT RIVER AB HOG PARK CR, NR ENCAMPMENT, WY 5.5 1.12 Ice 2,280 2017-02-21 15:30:00 HOGW4
06625000 ENCAMPMENT RIVER AT MOUTH, NEAR ENCAMPMENT, WY 6.5 2.03 86 4,720 2017-02-21 15:30:00 ECRW4
06630000 N PLATTE RIV AB SEMINOE RESERVOIR, NR SINCLAIR, WY 9 3.92 Ice 16,700 2017-02-21 15:45:00 SINW4
06630465 Medicine Bow R ab E Fk Med Bow nr Elk Mountain, WY 7 3.77 Ice 1,300 2017-02-21 15:45:00 MBRW4
06632400 ROCK CREEK AB KING CANYON CANAL, NR ARLINGTON, WY 6 0.59 Ice 2,800 2017-02-21 15:15:00 KCRW4
06634060 L Medicine Bow R ab Sand Cr, nr Shirley Basin, WY   2.05 Ice 569 2017-02-21 15:45:00  
06634620 L MEDICINE BOW R AT BOLES SPRING, NR MEDICINE BOW 8 1.25 Ice 1,900 2017-02-21 15:30:00 LMBW4
06635000 MEDICINE BOW R AB SEMINOE RESERVOIR, NR HANNA, WY 6 2.97 Ice 6,010 2017-02-21 15:45:00 HANW4
06638090 SWEETWATER RIVER NEAR SWEETWATER STATION, WY 7 3.16 Ice 5,750 2017-02-21 15:30:00  
06639000 SWEETWATER RIVER NEAR ALCOVA, WY   2.27 Ice 4,290 2017-02-21 15:45:00 SWEW4
06646000 DEER CREEK IN CANYON, NEAR GLENROCK, WY   2.74 Ice 4,240 2017-02-21 15:45:00  
06652000 NORTH PLATTE RIVER AT ORIN, WY 8 3.63 Ice 23,800 2017-02-21 15:45:00 ORIW4
06657000 NORTH PLATTE RIVER BELOW WHALEN DIVERSION DAM, WY   4.68 Ice 22,000 2017-02-21 15:00:00 WHLW4
06659580 SAND CREEK AT COLORADO-WYOMING STATE LINE  

 

Ssn 6,710 2016-10-01 04:00:00  
06660000 LARAMIE RIVER AT LARAMIE, WY 9 5.24 Ice 3,250 2017-02-21 15:00:00  
06670500 LARAMIE RIVER NEAR FORT LARAMIE, WY 7 3.58 Ice 6,260 2017-02-21 15:00:00 FLAW4
06674500 NORTH PLATTE RIVER AT WYOMING-NEBRASKA STATE LINE 5.5 2.48 352 17,900 2017-02-21 15:45:00 HENN1
06755960 CROW CREEK AT 19TH STREET, AT CHEYENNE, WY 8 2.00 Ice 769 2017-02-21 15:15:00 FEWW4
09188500 GREEN RIVER AT WARREN BRIDGE, NEAR DANIEL, WY 6 3.41 Ice 5,930 2017-02-21 15:45:00 WBRW4
09196500 PINE CREEK ABOVE FREMONT LAKE, WY   2.68 48 2,550 2017-02-21 15:45:00 FRAW4
09205000 NEW FORK RIVER NEAR BIG PINEY, WY 8 4.16 Ice 9,190 2017-02-21 16:00:00 BPNW4
09209400 GREEN RIVER NEAR LA BARGE, WY 9 7.23 Ice 18,800 2017-02-21 16:00:00 LABW4
09210500 FONTENELLE C NR HERSCHLER RANCH, NR FONTENELLE, WY 11.5 5.60 Ice 907 2017-02-21 15:45:00 FCHW4
09211200 GREEN RIVER BELOW FONTENELLE RESERVOIR, WY 16.5 11.44 973 19,400 2017-02-21 16:00:00 GBFW4
09213500 BIG SANDY RIVER NEAR FARSON, WY   4.99 Ssn 1,890 2017-02-21 15:00:00 BSRW4
09213700 BIG SANDY RESERVOIR NEAR FARSON, WY   6751.24

 

  2017-02-21 15:00:00 BIGW4
09215000 PACIFIC CREEK NEAR FARSON, WY   4.19 Ice 972 2017-02-21 15:45:00  
09217000 GREEN RIVER NEAR GREEN RIVER, WY 7 2.34 Ice 22,200 2017-02-21 15:30:00 GRRW4
09217900 BLACKS FORK NEAR ROBERTSON, WY 5 1.86 Ice 3,780 2017-02-21 15:00:00 BNRU1
09218500 BLACKS FORK NEAR MILLBURNE, WY   1.95 Ssn 2,530 2017-02-21 16:00:00  
09220000 EAST FORK OF SMITHS FORK NEAR ROBERTSON, WY   3.45 Ice 1,450 2017-02-21 15:15:00 SFRW4
09223000 HAMS FORK BELOW POLE CREEK, NEAR FRONTIER, WY 6.5 4.53 Ice 2,230 2017-02-21 15:45:00 HMFW4
09224700 BLACKS FORK NEAR LITTLE AMERICA, WY 10.5 6.72 Ice 9,980 2017-02-21 15:00:00 LTAW4
09229500 HENRYS FORK NEAR MANILA, UT 7 3.45 Ice 6,750 2017-02-21 15:15:00 HFMW4
09257000 LITTLE SNAKE RIVER NEAR DIXON, WY 9.5 3.43 Ice 13,000 2017-02-21 16:00:00  
09258050 Muddy Creek above Olson Draw, near Dad, WY   4.07 Ice 465 2017-02-21 15:30:00 MUCW4
09258980 MUDDY CREEK BELOW YOUNG DRAW, NEAR BAGGS, WY   3.41 57 755 2017-02-21 15:00:00 MCYW4
10016900 BEAR RIVER AT EVANSTON, WY 7 1.43 152 3,890 2017-02-21 16:00:00 EVAW4
10020100 BEAR RIVER ABOVE RESERVOIR, NEAR WOODRUFF, UT   3.32 Ice 4,150 2017-02-21 15:45:00 BEAW4
10020300 BEAR RIVER BELOW RESERVOIR, NEAR WOODRUFF, UT   3.65 150 3,820 2017-02-21 15:45:00 BRWU1
10028500 BEAR RIVER BELOW PIXLEY DAM, NEAR COKEVILLE, WY 8.5 1.57 Ssn 2,300 2016-10-05 14:45:00 PIXW4
10032000 SMITHS FORK NEAR BORDER, WY 5.5 1.10 Ice 2,100 2017-02-21 15:30:00 BORW4
10038000 BEAR RIVER BLW SMITHS FORK, NR COKEVILLE, WY 7.5 3.24 Ice 5,620 2017-02-21 15:30:00 COKW4
13010065 SNAKE RIVER AB JACKSON LAKE AT FLAGG RANCH WY 10 2.99 515 15,000 2017-02-21 15:30:00 FLGW4
13011000 SNAKE RIVER NR MORAN WY 24 2.44 293 15,100 2017-02-21 15:45:00 JLKW4
13011500 PACIFIC CREEK AT MORAN WY 8 6.53 Ice 5,790 2017-02-21 15:30:00 PACW4
13011900 BUFFALO FORK AB LAVA CREEK NR MORAN WY 8.5 2.85 Ice 6,540 2017-02-21 15:30:00 BFKW4
13013650 SNAKE RIVER AT MOOSE, WY 15 8.82 932 25,300 2017-02-21 15:00:00 MSEW4
13014500 GROS VENTRE RIVER AT KELLY, WY   4.22 205 6,960 2017-02-21 15:00:00 GVKW4
13015000 GROS VENTRE RIVER AT ZENITH WY   21.73 Ssn 6,170 2017-02-16 03:30:00 GVZW4
13016305 GRANITE C AB GRANITE C SUPPLEMENTAL, NR MOOSE, WY   3.94 Ice 599 2017-02-21 15:00:00 GCMW4
13016450 FISH CREEK AT WILSON, WY 6.0 1.90 72 1,430 2017-02-21 16:00:00 FCWW4
13018300 CACHE CREEK NEAR JACKSON, WY   3.45 5.0 225 2017-02-21 15:45:00 CCKW4
13018350 FLAT CREEK BELOW CACHE CREEK, NEAR JACKSON, WY 6.0 2.37 165 315 2017-02-21 15:45:00 FCKW4
13018750 SNAKE RIVER BL FLAT CREEK NR JACKSON WY 10 1.93 1,740 30,200 2017-02-21 15:30:00 JKSW4
13022500 SNAKE RIVER AB RESERVOIR NR ALPINE WY   3.48 2,370 38,600 2017-02-21 15:30:00 ALPW4
13023000 GREYS RIVER AB RESERVOIR NR ALPINE WY   1.83 501 7,230 2017-02-21 15:30:00 GREW4
13025500 CROW CREEK NEAR FAIRVIEW, WY   2.46 67 346 2017-02-21 15:45:00  
13027500 SALT RIVER AB RESERVOIR NR ETNA WY 5.5 2.52 823 5,090 2017-02-21 15:30:00 SALW4